Year,Month,Day,Hour,Minute,Value (Times are PST for temperature in C)
2013,07,12,00,00,13.80
2013,07,12,00,01,13.80
2013,07,12,00,02,13.80
2013,07,12,00,03,13.70
2013,07,12,00,04,13.70
2013,07,12,00,05,13.70
2013,07,12,00,06,13.70
2013,07,12,00,07,13.70
2013,07,12,00,08,13.70
2013,07,12,00,09,13.70
2013,07,12,00,10,13.70
2013,07,12,00,11,13.70
2013,07,12,00,12,13.60
2013,07,12,00,13,13.60
2013,07,12,00,14,13.60
2013,07,12,00,15,13.60
2013,07,12,00,16,13.60
2013,07,12,00,17,13.60
2013,07,12,00,18,13.50
2013,07,12,00,19,13.50
2013,07,12,00,20,13.50
2013,07,12,00,21,13.40
2013,07,12,00,22,13.40
2013,07,12,00,23,13.40
2013,07,12,00,24,13.40
2013,07,12,00,25,13.30
2013,07,12,00,26,13.30
2013,07,12,00,27,13.30
2013,07,12,00,28,13.30
2013,07,12,00,29,13.30
2013,07,12,00,30,13.30
2013,07,12,00,31,13.30
2013,07,12,00,32,13.30
2013,07,12,00,33,13.30
2013,07,12,00,34,13.20
2013,07,12,00,35,13.20
2013,07,12,00,36,13.20
2013,07,12,00,37,13.20
2013,07,12,00,38,13.20
2013,07,12,00,39,13.20
2013,07,12,00,40,13.20
2013,07,12,00,41,13.20
2013,07,12,00,42,13.20
2013,07,12,00,43,13.10
2013,07,12,00,44,13.10
2013,07,12,00,45,13.10
2013,07,12,00,46,13.10
2013,07,12,00,47,13.10
2013,07,12,00,48,13.00
2013,07,12,00,49,13.00
2013,07,12,00,50,13.00
2013,07,12,00,51,13.00
2013,07,12,00,52,13.00
2013,07,12,00,53,12.90
2013,07,12,00,54,12.90
2013,07,12,00,55,12.90
2013,07,12,00,56,12.90
2013,07,12,00,57,12.90
2013,07,12,00,58,12.90
2013,07,12,00,59,12.80
2013,07,12,01,00,12.80
2013,07,12,01,01,12.80
2013,07,12,01,02,12.80
2013,07,12,01,03,12.80
2013,07,12,01,04,12.80
2013,07,12,01,05,12.80
2013,07,12,01,06,12.70
2013,07,12,01,07,12.70
2013,07,12,01,08,12.70
2013,07,12,01,09,12.60
2013,07,12,01,10,12.50
2013,07,12,01,11,12.50
2013,07,12,01,12,12.40
2013,07,12,01,13,12.40
2013,07,12,01,14,12.30
2013,07,12,01,15,12.30
2013,07,12,01,16,12.30
2013,07,12,01,17,12.30
2013,07,12,01,18,12.30
2013,07,12,01,19,12.30
2013,07,12,01,20,12.30
2013,07,12,01,21,12.30
2013,07,12,01,22,12.30
2013,07,12,01,23,12.30
2013,07,12,01,24,12.30
2013,07,12,01,25,12.30
2013,07,12,01,26,12.30
2013,07,12,01,27,12.30
2013,07,12,01,28,12.30
2013,07,12,01,29,12.30
2013,07,12,01,30,12.30
2013,07,12,01,31,12.30
2013,07,12,01,32,12.30
2013,07,12,01,33,12.30
2013,07,12,01,34,12.30
2013,07,12,01,35,12.30
2013,07,12,01,36,12.30
2013,07,12,01,37,12.30
2013,07,12,01,38,12.30
2013,07,12,01,39,12.30
2013,07,12,01,40,12.20
2013,07,12,01,41,12.20
2013,07,12,01,42,12.20
2013,07,12,01,43,12.20
2013,07,12,01,44,12.20
2013,07,12,01,45,12.20
2013,07,12,01,46,12.20
2013,07,12,01,47,12.20
2013,07,12,01,48,12.10
2013,07,12,01,49,12.10
2013,07,12,01,50,12.10
2013,07,12,01,51,12.10
2013,07,12,01,52,12.10
2013,07,12,01,53,12.10
2013,07,12,01,54,12.10
2013,07,12,01,55,12.00
2013,07,12,01,56,12.00
2013,07,12,01,57,12.00
2013,07,12,01,58,12.00
2013,07,12,01,59,11.90
2013,07,12,02,00,11.90
2013,07,12,02,01,11.80
2013,07,12,02,02,11.80
2013,07,12,02,03,11.80
2013,07,12,02,04,11.80
2013,07,12,02,05,11.80
2013,07,12,02,06,11.70
2013,07,12,02,07,11.70
2013,07,12,02,08,11.60
2013,07,12,02,09,11.60
2013,07,12,02,10,11.60
2013,07,12,02,11,11.60
2013,07,12,02,12,11.60
2013,07,12,02,13,11.60
2013,07,12,02,14,11.60
2013,07,12,02,15,11.60
2013,07,12,02,16,11.60
2013,07,12,02,17,11.70
2013,07,12,02,18,11.70
2013,07,12,02,19,11.80
2013,07,12,02,20,11.80
2013,07,12,02,21,11.80
2013,07,12,02,22,11.80
2013,07,12,02,23,11.90
2013,07,12,02,24,11.90
2013,07,12,02,25,11.90
2013,07,12,02,26,11.90
2013,07,12,02,27,11.90
2013,07,12,02,28,11.80
2013,07,12,02,29,11.80
2013,07,12,02,30,11.80
2013,07,12,02,31,11.80
2013,07,12,02,32,11.80
2013,07,12,02,33,11.80
2013,07,12,02,34,11.70
2013,07,12,02,35,11.60
2013,07,12,02,36,11.60
2013,07,12,02,37,11.60
2013,07,12,02,38,11.60
2013,07,12,02,39,11.40
2013,07,12,02,40,11.40
2013,07,12,02,41,11.40
2013,07,12,02,42,11.40
2013,07,12,02,43,11.40
2013,07,12,02,44,11.40
2013,07,12,02,45,11.30
2013,07,12,02,46,11.30
2013,07,12,02,47,11.30
2013,07,12,02,48,11.30
2013,07,12,02,49,11.30
2013,07,12,02,50,11.30
2013,07,12,02,51,11.20
2013,07,12,02,52,11.20
2013,07,12,02,53,11.20
2013,07,12,02,54,11.20
2013,07,12,02,55,11.20
2013,07,12,02,56,11.10
2013,07,12,02,57,11.10
2013,07,12,02,58,11.10
2013,07,12,02,59,11.10
2013,07,12,03,00,11.10
2013,07,12,03,01,11.10
2013,07,12,03,02,11.10
2013,07,12,03,03,11.10
2013,07,12,03,04,11.10
2013,07,12,03,05,11.10
2013,07,12,03,06,11.10
2013,07,12,03,07,11.10
2013,07,12,03,08,11.10
2013,07,12,03,09,11.10
2013,07,12,03,10,11.10
2013,07,12,03,11,11.10
2013,07,12,03,12,11.10
2013,07,12,03,13,11.10
2013,07,12,03,14,11.10
2013,07,12,03,15,11.10
2013,07,12,03,16,11.10
2013,07,12,03,17,11.10
2013,07,12,03,18,11.10
2013,07,12,03,19,11.10
2013,07,12,03,20,10.90
2013,07,12,03,21,10.90
2013,07,12,03,22,10.90
2013,07,12,03,23,10.90
2013,07,12,03,24,10.90
2013,07,12,03,25,10.90
2013,07,12,03,26,10.90
2013,07,12,03,27,10.90
2013,07,12,03,28,10.90
2013,07,12,03,29,10.90
2013,07,12,03,30,10.80
2013,07,12,03,31,10.80
2013,07,12,03,32,10.80
2013,07,12,03,33,10.80
2013,07,12,03,34,10.70
2013,07,12,03,35,10.70
2013,07,12,03,36,10.70
2013,07,12,03,37,10.70
2013,07,12,03,38,10.70
2013,07,12,03,39,10.70
2013,07,12,03,40,10.70
2013,07,12,03,41,10.70
2013,07,12,03,42,10.70
2013,07,12,03,43,10.70
2013,07,12,03,44,10.70
2013,07,12,03,45,10.70
2013,07,12,03,46,10.70
2013,07,12,03,47,10.60
2013,07,12,03,48,10.60
2013,07,12,03,49,10.60
2013,07,12,03,50,10.60
2013,07,12,03,51,10.60
2013,07,12,03,52,10.60
2013,07,12,03,53,10.60
2013,07,12,03,54,10.60
2013,07,12,03,55,10.60
2013,07,12,03,56,10.60
2013,07,12,03,57,10.60
2013,07,12,03,58,10.60
2013,07,12,03,59,10.40
2013,07,12,04,00,10.40
2013,07,12,04,01,10.40
2013,07,12,04,02,10.40
2013,07,12,04,03,10.40
2013,07,12,04,04,10.30
2013,07,12,04,05,10.30
2013,07,12,04,06,10.30
2013,07,12,04,07,10.20
2013,07,12,04,08,10.20
2013,07,12,04,09,10.20
2013,07,12,04,10,10.20
2013,07,12,04,11,10.20
2013,07,12,04,12,10.20
2013,07,12,04,13,10.20
2013,07,12,04,14,10.20
2013,07,12,04,15,10.20
2013,07,12,04,16,10.20
2013,07,12,04,17,10.20
2013,07,12,04,18,10.20
2013,07,12,04,19,10.20
2013,07,12,04,20,10.20
2013,07,12,04,21,10.20
2013,07,12,04,22,10.20
2013,07,12,04,23,10.20
2013,07,12,05,47,9.90
2013,07,12,05,48,9.90
2013,07,12,05,49,9.80
2013,07,12,05,50,9.80
2013,07,12,05,51,9.80
2013,07,12,05,52,9.80
2013,07,12,05,53,9.80
2013,07,12,05,54,9.80
2013,07,12,05,55,9.80
2013,07,12,05,56,9.80
2013,07,12,05,57,9.80
2013,07,12,05,58,9.80
2013,07,12,05,59,9.80
2013,07,12,06,00,9.80
2013,07,12,06,01,9.80
2013,07,12,06,02,9.80
2013,07,12,06,03,9.80
2013,07,12,06,04,9.80
2013,07,12,06,05,9.80
2013,07,12,06,06,9.90
2013,07,12,06,07,9.90
2013,07,12,06,08,9.90
2013,07,12,06,09,9.90
2013,07,12,06,10,9.90
2013,07,12,06,11,9.90
2013,07,12,06,12,9.90
2013,07,12,06,13,9.90
2013,07,12,06,14,9.90
2013,07,12,06,15,9.90
2013,07,12,06,16,9.90
2013,07,12,06,17,9.90
2013,07,12,06,18,9.90
2013,07,12,06,19,9.90
2013,07,12,06,20,10.10
2013,07,12,06,21,10.10
2013,07,12,06,22,10.10
2013,07,12,06,23,10.10
2013,07,12,06,24,10.10
2013,07,12,06,25,10.10
2013,07,12,06,26,10.10
2013,07,12,06,27,10.10
2013,07,12,06,28,10.10
2013,07,12,06,29,10.10
2013,07,12,06,30,10.10
2013,07,12,06,31,10.10
2013,07,12,06,32,10.20
2013,07,12,06,33,10.20
2013,07,12,06,34,10.20
2013,07,12,06,35,10.20
2013,07,12,06,36,10.30
2013,07,12,06,37,10.30
2013,07,12,06,38,10.30
2013,07,12,06,39,10.30
2013,07,12,06,40,10.40
2013,07,12,06,41,10.40
2013,07,12,06,42,10.40
2013,07,12,06,43,10.40
2013,07,12,06,44,10.40
2013,07,12,06,45,10.40
2013,07,12,06,46,10.60
2013,07,12,06,47,10.60
2013,07,12,06,48,10.60
2013,07,12,06,49,10.60
2013,07,12,06,50,10.60
2013,07,12,06,51,10.60
2013,07,12,06,52,10.60
2013,07,12,06,53,10.70
2013,07,12,06,54,10.80
2013,07,12,06,55,10.80
2013,07,12,06,56,10.90
2013,07,12,06,57,10.90
2013,07,12,06,58,10.90
2013,07,12,06,59,10.90
2013,07,12,07,00,10.90
2013,07,12,07,01,11.10
2013,07,12,07,02,11.10
2013,07,12,07,03,11.10
2013,07,12,07,04,11.10
2013,07,12,07,05,11.10
2013,07,12,07,06,11.10
2013,07,12,07,07,11.20
2013,07,12,07,08,11.20
2013,07,12,07,09,11.20
2013,07,12,07,10,11.30
2013,07,12,07,11,11.30
2013,07,12,07,12,11.30
2013,07,12,07,13,11.40
2013,07,12,07,14,11.40
2013,07,12,07,15,11.40
2013,07,12,07,16,11.40
2013,07,12,07,17,11.60
2013,07,12,07,18,11.60
2013,07,12,07,19,11.60
2013,07,12,07,20,11.60
2013,07,12,07,21,11.70
2013,07,12,07,22,11.80
2013,07,12,07,23,11.80
2013,07,12,07,24,11.80
2013,07,12,07,25,11.90
2013,07,12,07,26,11.90
2013,07,12,07,27,11.90
2013,07,12,07,28,12.00
2013,07,12,07,29,12.00
2013,07,12,07,30,12.10
2013,07,12,07,31,12.10
2013,07,12,07,32,12.20
2013,07,12,07,33,12.30
2013,07,12,07,34,12.30
2013,07,12,07,35,12.30
2013,07,12,07,36,12.30
2013,07,12,07,37,12.40
2013,07,12,07,38,12.40
2013,07,12,07,39,12.50
2013,07,12,07,40,12.50
2013,07,12,07,41,12.60
2013,07,12,07,42,12.60
2013,07,12,07,43,12.60
2013,07,12,07,44,12.70
2013,07,12,07,45,12.70
2013,07,12,07,46,12.70
2013,07,12,07,47,12.70
2013,07,12,07,48,12.80
2013,07,12,07,49,12.80
2013,07,12,07,50,12.80
2013,07,12,07,51,12.80
2013,07,12,07,52,12.80
2013,07,12,07,53,12.90
2013,07,12,07,54,12.90
2013,07,12,07,55,12.90
2013,07,12,07,56,13.00
2013,07,12,07,57,13.00
2013,07,12,07,58,13.10
2013,07,12,07,59,13.10
2013,07,12,08,00,13.20
2013,07,12,08,01,13.30
2013,07,12,08,02,13.30
2013,07,12,08,03,13.30
2013,07,12,08,04,13.50
2013,07,12,08,05,13.60
2013,07,12,08,06,13.70
2013,07,12,08,07,13.70
2013,07,12,08,08,13.90
2013,07,12,08,09,14.10
2013,07,12,08,10,14.20
2013,07,12,08,11,14.20
2013,07,12,08,12,14.40
2013,07,12,08,13,14.50
2013,07,12,08,14,14.60
2013,07,12,08,15,14.60
2013,07,12,08,16,14.60
2013,07,12,08,17,14.60
2013,07,12,08,18,14.70
2013,07,12,08,19,14.70
2013,07,12,08,20,14.70
2013,07,12,08,21,14.70
2013,07,12,08,22,14.80
2013,07,12,08,23,14.80
2013,07,12,08,24,14.80
2013,07,12,08,25,14.80
2013,07,12,08,26,14.90
2013,07,12,08,27,14.90
2013,07,12,08,28,15.00
2013,07,12,08,29,15.00
2013,07,12,08,30,15.10
2013,07,12,08,31,15.10
2013,07,12,08,32,15.10
2013,07,12,08,33,15.20
2013,07,12,08,34,15.10
2013,07,12,08,35,15.10
2013,07,12,08,36,15.00
2013,07,12,08,37,14.90
2013,07,12,08,38,14.90
2013,07,12,08,39,14.80
2013,07,12,08,40,14.80
2013,07,12,08,41,14.80
2013,07,12,08,42,14.80
2013,07,12,08,43,14.80
2013,07,12,08,44,14.80
2013,07,12,08,45,14.80
2013,07,12,08,46,14.90
2013,07,12,08,47,14.90
2013,07,12,08,48,15.00
2013,07,12,08,49,14.90
2013,07,12,08,50,14.90
2013,07,12,08,51,14.90
2013,07,12,08,52,14.90
2013,07,12,08,53,14.90
2013,07,12,08,54,14.90
2013,07,12,08,55,14.90
2013,07,12,08,56,14.90
2013,07,12,08,57,15.00
2013,07,12,08,58,15.00
2013,07,12,08,59,15.10
2013,07,12,09,00,15.10
2013,07,12,09,01,15.10
2013,07,12,09,02,15.10
2013,07,12,09,03,15.20
2013,07,12,09,04,15.20
2013,07,12,09,05,15.20
2013,07,12,09,06,15.20
2013,07,12,09,07,15.20
2013,07,12,09,08,15.30
2013,07,12,09,09,15.30
2013,07,12,09,10,15.40
2013,07,12,09,11,15.50
2013,07,12,09,12,15.60
2013,07,12,09,13,15.60
2013,07,12,09,14,15.70
2013,07,12,09,15,15.70
2013,07,12,09,16,15.80
2013,07,12,09,17,15.80
2013,07,12,09,18,15.90
2013,07,12,09,19,16.10
2013,07,12,09,20,16.10
2013,07,12,09,21,16.10
2013,07,12,09,22,16.10
2013,07,12,09,23,16.10
2013,07,12,09,24,16.20
2013,07,12,09,25,16.20
2013,07,12,09,26,16.20
2013,07,12,09,27,16.20
2013,07,12,09,28,16.30
2013,07,12,09,29,16.30
2013,07,12,09,30,16.30
2013,07,12,09,31,16.40
2013,07,12,09,32,16.40
2013,07,12,09,33,16.40
2013,07,12,09,34,16.60
2013,07,12,09,35,16.70
2013,07,12,09,36,16.70
2013,07,12,09,37,16.70
2013,07,12,09,38,16.80
2013,07,12,09,39,16.90
2013,07,12,09,40,16.90
2013,07,12,09,41,17.10
2013,07,12,09,42,17.20
2013,07,12,09,43,17.30
2013,07,12,09,44,17.40
2013,07,12,09,45,17.50
2013,07,12,09,46,17.60
2013,07,12,09,47,17.60
2013,07,12,09,48,17.60
2013,07,12,09,49,17.60
2013,07,12,09,50,17.60
2013,07,12,09,51,17.50
2013,07,12,09,52,17.40
2013,07,12,09,53,17.30
2013,07,12,09,54,17.30
2013,07,12,09,55,17.30
2013,07,12,09,56,17.20
2013,07,12,09,57,17.30
2013,07,12,09,58,17.30
2013,07,12,09,59,17.50
2013,07,12,10,00,17.70
2013,07,12,10,01,17.90
2013,07,12,10,02,18.10
2013,07,12,10,03,18.20
2013,07,12,10,04,18.20
2013,07,12,10,05,18.20
2013,07,12,10,06,18.20
2013,07,12,10,07,18.10
2013,07,12,10,08,17.90
2013,07,12,10,09,17.80
2013,07,12,10,10,17.70
2013,07,12,10,11,17.60
2013,07,12,10,12,17.60
2013,07,12,10,13,17.60
2013,07,12,10,14,17.70
2013,07,12,10,15,17.70
2013,07,12,10,16,17.70
2013,07,12,10,17,17.80
2013,07,12,10,18,17.90
2013,07,12,10,19,17.90
2013,07,12,10,20,17.90
2013,07,12,10,21,17.90
2013,07,12,10,22,18.10
2013,07,12,10,23,18.20
2013,07,12,10,24,18.20
2013,07,12,10,25,18.20
2013,07,12,10,26,18.20
2013,07,12,10,27,18.20
2013,07,12,10,28,18.20
2013,07,12,10,29,18.20
2013,07,12,10,30,18.20
2013,07,12,10,31,18.20
2013,07,12,10,32,18.30
2013,07,12,10,33,18.40
2013,07,12,10,34,18.40
2013,07,12,10,35,18.40
2013,07,12,10,36,18.40
2013,07,12,10,37,18.30
2013,07,12,10,38,18.30
2013,07,12,10,39,18.20
2013,07,12,10,40,18.20
2013,07,12,10,41,18.30
2013,07,12,10,42,18.30
2013,07,12,10,43,18.40
2013,07,12,10,44,18.40
2013,07,12,10,45,18.40
2013,07,12,10,46,18.50
2013,07,12,10,47,18.70
2013,07,12,10,48,18.80
2013,07,12,10,49,18.90
2013,07,12,10,50,18.90
2013,07,12,10,51,18.90
2013,07,12,10,52,18.80
2013,07,12,10,53,18.80
2013,07,12,10,54,18.80
2013,07,12,10,55,18.80
2013,07,12,10,56,18.80
2013,07,12,10,57,18.90
2013,07,12,10,58,18.90
2013,07,12,10,59,18.90
2013,07,12,11,00,18.90
2013,07,12,11,01,18.90
2013,07,12,11,02,18.90
2013,07,12,11,03,18.90
2013,07,12,11,04,18.90
2013,07,12,11,05,18.90
2013,07,12,11,06,18.80
2013,07,12,11,07,18.70
2013,07,12,11,08,18.70
2013,07,12,11,09,18.80
2013,07,12,11,10,18.70
2013,07,12,11,11,18.70
2013,07,12,11,12,18.70
2013,07,12,11,13,18.70
2013,07,12,11,14,18.60
2013,07,12,11,15,18.60
2013,07,12,11,16,18.60
2013,07,12,11,17,18.60
2013,07,12,11,18,18.60
2013,07,12,11,19,18.60
2013,07,12,11,20,18.70
2013,07,12,11,21,18.70
2013,07,12,11,22,18.80
2013,07,12,11,23,18.90
2013,07,12,11,24,18.90
2013,07,12,11,25,19.10
2013,07,12,11,26,19.10
2013,07,12,11,27,19.30
2013,07,12,11,28,19.40
2013,07,12,11,29,19.50
2013,07,12,11,30,19.60
2013,07,12,11,31,19.70
2013,07,12,11,32,19.80
2013,07,12,11,33,19.90
2013,07,12,11,34,19.90
2013,07,12,11,35,20.10
2013,07,12,11,36,20.20
2013,07,12,11,37,20.20
2013,07,12,11,38,20.30
2013,07,12,11,39,20.40
2013,07,12,11,40,20.40
2013,07,12,11,41,20.50
2013,07,12,11,42,20.50
2013,07,12,11,43,20.50
2013,07,12,11,44,20.60
2013,07,12,11,45,20.70
2013,07,12,11,46,20.80
2013,07,12,11,47,20.90
2013,07,12,11,48,21.00
2013,07,12,11,49,21.20
2013,07,12,11,50,21.30
2013,07,12,11,51,21.40
2013,07,12,11,52,21.60
2013,07,12,11,53,21.60
2013,07,12,11,54,21.30
2013,07,12,11,55,21.30
2013,07,12,11,56,21.40
2013,07,12,11,57,21.60
2013,07,12,11,58,21.60
2013,07,12,11,59,21.60
2013,07,12,12,00,21.60
2013,07,12,12,01,21.40
2013,07,12,12,02,21.30
2013,07,12,12,03,21.30
2013,07,12,12,04,21.20
2013,07,12,12,05,21.10
2013,07,12,12,06,21.10
2013,07,12,12,07,21.10
2013,07,12,12,08,21.20
2013,07,12,12,09,21.20
2013,07,12,12,10,21.30
2013,07,12,12,11,21.30
2013,07,12,12,12,21.60
2013,07,12,12,13,21.70
2013,07,12,12,14,21.80
2013,07,12,12,15,21.90
2013,07,12,12,16,21.90
2013,07,12,12,17,21.90
2013,07,12,12,18,21.90
2013,07,12,12,19,21.80
2013,07,12,12,20,21.70
2013,07,12,12,21,21.60
2013,07,12,12,22,21.60
2013,07,12,12,23,21.60
2013,07,12,12,24,21.60
2013,07,12,12,25,21.70
2013,07,12,12,26,21.90
2013,07,12,12,27,22.00
2013,07,12,12,28,22.10
2013,07,12,12,29,22.20
2013,07,12,12,30,22.30
2013,07,12,12,31,22.40
2013,07,12,12,32,22.50
2013,07,12,12,33,22.60
2013,07,12,12,34,22.70
2013,07,12,12,35,22.80
2013,07,12,12,36,22.90
2013,07,12,12,37,22.90
2013,07,12,12,38,22.90
2013,07,12,12,39,22.90
2013,07,12,12,40,23.10
2013,07,12,12,41,23.20
2013,07,12,12,42,23.20
2013,07,12,12,43,23.30
2013,07,12,12,44,23.30
2013,07,12,12,45,23.30
2013,07,12,12,46,23.10
2013,07,12,12,47,22.90
2013,07,12,12,48,22.90
2013,07,12,12,49,22.70
2013,07,12,12,50,22.70
2013,07,12,12,51,22.70
2013,07,12,12,52,22.60
2013,07,12,12,53,22.50
2013,07,12,12,54,22.50
2013,07,12,12,55,22.60
2013,07,12,12,56,22.80
2013,07,12,12,57,22.80
2013,07,12,12,58,22.80
2013,07,12,12,59,22.90
2013,07,12,13,00,22.90
2013,07,12,13,01,23.20
2013,07,12,13,02,23.30
2013,07,12,13,03,23.40
2013,07,12,13,04,23.40
2013,07,12,13,05,23.30
2013,07,12,13,06,23.30
2013,07,12,13,07,23.30
2013,07,12,13,08,23.10
2013,07,12,13,09,22.90
2013,07,12,13,10,22.80
2013,07,12,13,11,22.70
2013,07,12,13,12,22.50
2013,07,12,13,13,22.40
2013,07,12,13,14,22.50
2013,07,12,13,15,22.60
2013,07,12,13,16,22.80
2013,07,12,13,17,22.90
2013,07,12,13,18,22.90
2013,07,12,13,19,22.90
2013,07,12,13,20,23.10
2013,07,12,13,21,22.90
2013,07,12,13,22,22.90
2013,07,12,13,23,23.10
2013,07,12,13,24,23.20
2013,07,12,13,25,23.30
2013,07,12,13,26,23.60
2013,07,12,13,27,23.70
2013,07,12,13,28,23.90
2013,07,12,13,29,24.10
2013,07,12,13,30,24.30
2013,07,12,13,31,24.50
2013,07,12,13,32,24.50
2013,07,12,13,33,24.30
2013,07,12,13,34,24.10
2013,07,12,13,35,23.70
2013,07,12,13,36,23.40
2013,07,12,13,37,23.30
2013,07,12,13,38,23.20
2013,07,12,13,39,23.10
2013,07,12,13,40,23.10
2013,07,12,13,41,22.90
2013,07,12,13,42,22.70
2013,07,12,13,43,22.60
2013,07,12,13,44,22.50
2013,07,12,13,45,22.50
2013,07,12,13,46,22.40
2013,07,12,13,47,22.30
2013,07,12,13,48,22.30
2013,07,12,13,49,22.30
2013,07,12,13,50,22.30
2013,07,12,13,51,22.30
2013,07,12,13,52,22.30
2013,07,12,13,53,22.30
2013,07,12,13,54,22.30
2013,07,12,13,55,22.20
2013,07,12,13,56,22.30
2013,07,12,13,57,22.30
2013,07,12,13,58,22.30
2013,07,12,13,59,22.30
2013,07,12,14,00,22.30
2013,07,12,14,01,22.20
2013,07,12,14,02,22.10
2013,07,12,14,03,22.00
2013,07,12,14,04,22.00
2013,07,12,14,05,21.80
2013,07,12,14,06,21.80
2013,07,12,14,07,21.80
2013,07,12,14,08,21.80
2013,07,12,14,09,21.80
2013,07,12,14,10,21.80
2013,07,12,14,11,21.90
2013,07,12,14,12,21.90
2013,07,12,14,13,21.90
2013,07,12,14,14,21.80
2013,07,12,14,15,21.70
2013,07,12,14,16,21.60
2013,07,12,14,17,21.60
2013,07,12,14,18,21.60
2013,07,12,14,19,21.60
2013,07,12,14,20,21.60
2013,07,12,14,21,21.60
2013,07,12,14,22,21.60
2013,07,12,14,23,21.60
2013,07,12,14,24,21.60
2013,07,12,14,25,21.60
2013,07,12,14,26,21.60
2013,07,12,14,27,21.60
2013,07,12,14,28,21.60
2013,07,12,14,29,21.60
2013,07,12,14,30,21.60
2013,07,12,14,31,21.60
2013,07,12,14,32,21.60
2013,07,12,14,33,21.60
2013,07,12,14,34,21.60
2013,07,12,14,35,21.60
2013,07,12,14,36,21.40
2013,07,12,14,37,21.40
2013,07,12,14,38,21.30
2013,07,12,14,39,21.30
2013,07,12,14,40,21.30
2013,07,12,14,41,21.30
2013,07,12,14,42,21.30
2013,07,12,14,43,21.40
2013,07,12,14,44,21.60
2013,07,12,14,45,21.60
2013,07,12,14,46,21.60
2013,07,12,14,47,21.60
2013,07,12,14,48,21.70
2013,07,12,14,49,21.70
2013,07,12,14,50,21.60
2013,07,12,14,51,21.60
2013,07,12,14,52,21.60
2013,07,12,14,53,21.60
2013,07,12,14,54,21.60
2013,07,12,14,55,21.60
2013,07,12,14,56,21.60
2013,07,12,14,57,21.70
2013,07,12,14,58,21.80
2013,07,12,14,59,21.90
2013,07,12,15,00,22.00
2013,07,12,15,01,22.20
2013,07,12,15,02,22.30
2013,07,12,15,03,22.30
2013,07,12,15,04,22.40
2013,07,12,15,05,22.40
2013,07,12,15,06,22.50
2013,07,12,15,07,22.50
2013,07,12,15,08,22.50
2013,07,12,15,09,22.40
2013,07,12,15,10,22.40
2013,07,12,15,11,22.40
2013,07,12,15,12,22.40
2013,07,12,15,13,22.50
2013,07,12,15,14,22.50
2013,07,12,15,15,22.40
2013,07,12,15,16,22.40
2013,07,12,15,17,22.30
2013,07,12,15,18,22.30
2013,07,12,15,19,22.30
2013,07,12,15,20,22.30
2013,07,12,15,21,22.30
2013,07,12,15,22,22.20
2013,07,12,15,23,22.00
2013,07,12,15,24,22.00
2013,07,12,15,25,21.90
2013,07,12,15,26,21.80
2013,07,12,15,27,21.80
2013,07,12,15,28,21.80
2013,07,12,15,29,21.70
2013,07,12,15,30,21.70
2013,07,12,15,31,21.70
2013,07,12,15,32,21.70
2013,07,12,15,33,21.70
2013,07,12,15,34,21.70
2013,07,12,15,35,21.80
2013,07,12,15,36,21.90
2013,07,12,15,37,21.90
2013,07,12,15,38,22.00
2013,07,12,15,39,22.00
2013,07,12,15,40,21.90
2013,07,12,15,41,21.80
2013,07,12,15,42,21.80
2013,07,12,15,43,21.90
2013,07,12,15,44,21.90
2013,07,12,15,45,21.80
2013,07,12,15,46,21.80
2013,07,12,15,47,21.80
2013,07,12,15,48,21.90
2013,07,12,15,49,21.90
2013,07,12,15,50,22.00
2013,07,12,15,51,22.00
2013,07,12,15,52,22.10
2013,07,12,15,53,22.20
2013,07,12,15,54,22.20
2013,07,12,15,55,22.20
2013,07,12,15,56,22.20
2013,07,12,15,57,22.10
2013,07,12,15,58,22.10
2013,07,12,15,59,22.00
2013,07,12,16,00,22.00
2013,07,12,16,01,22.00
2013,07,12,16,02,22.00
2013,07,12,16,03,21.90
2013,07,12,16,04,22.00
2013,07,12,16,05,22.00
2013,07,12,16,06,21.90
2013,07,12,16,07,21.80
2013,07,12,16,08,21.70
2013,07,12,16,09,21.60
2013,07,12,16,10,21.60
2013,07,12,16,11,21.60
2013,07,12,16,12,21.60
2013,07,12,16,13,21.60
2013,07,12,16,14,21.60
2013,07,12,16,15,21.70
2013,07,12,16,16,21.70
2013,07,12,16,17,21.90
2013,07,12,16,18,22.00
2013,07,12,16,19,22.00
2013,07,12,16,20,22.10
2013,07,12,16,21,22.10
2013,07,12,16,22,22.10
2013,07,12,16,23,22.10
2013,07,12,16,24,22.10
2013,07,12,16,25,22.20
2013,07,12,16,26,22.20
2013,07,12,16,27,22.30
2013,07,12,16,28,22.30
2013,07,12,16,29,22.20
2013,07,12,16,30,22.10
2013,07,12,16,31,22.00
2013,07,12,16,32,21.90
2013,07,12,16,33,21.80
2013,07,12,16,34,21.80
2013,07,12,16,35,21.80
2013,07,12,16,36,21.80
2013,07,12,16,37,21.80
2013,07,12,16,38,21.80
2013,07,12,16,39,21.80
2013,07,12,16,40,21.80
2013,07,12,16,41,21.80
2013,07,12,16,42,21.80
2013,07,12,16,43,21.80
2013,07,12,16,44,21.70
2013,07,12,16,45,21.70
2013,07,12,16,46,21.70
2013,07,12,16,47,21.70
2013,07,12,16,48,21.80
2013,07,12,16,49,21.90
2013,07,12,16,50,21.90
2013,07,12,16,51,22.00
2013,07,12,16,52,21.90
2013,07,12,16,53,22.00
2013,07,12,16,54,22.00
2013,07,12,16,55,22.10
2013,07,12,16,56,22.20
2013,07,12,16,57,22.20
2013,07,12,16,58,22.10
2013,07,12,16,59,22.00
2013,07,12,17,00,21.90
2013,07,12,17,01,21.80
2013,07,12,17,02,21.60
2013,07,12,17,03,21.60
2013,07,12,17,04,21.30
2013,07,12,17,05,21.30
2013,07,12,17,06,21.30
2013,07,12,17,07,21.20
2013,07,12,17,08,21.20
2013,07,12,17,09,21.30
2013,07,12,17,10,21.30
2013,07,12,17,11,21.30
2013,07,12,17,12,21.30
2013,07,12,17,13,21.30
2013,07,12,17,14,21.40
2013,07,12,17,15,21.60
2013,07,12,17,16,21.60
2013,07,12,17,17,21.60
2013,07,12,17,18,21.70
2013,07,12,17,19,21.80
2013,07,12,17,20,21.70
2013,07,12,17,21,21.70
2013,07,12,17,22,21.70
2013,07,12,17,23,21.70
2013,07,12,17,24,21.70
2013,07,12,17,25,21.80
2013,07,12,17,26,21.80
2013,07,12,17,27,21.80
2013,07,12,17,28,21.80
2013,07,12,17,29,21.90
2013,07,12,17,30,21.90
2013,07,12,17,31,21.90
2013,07,12,17,32,21.90
2013,07,12,17,33,21.80
2013,07,12,17,34,21.70
2013,07,12,17,35,21.70
2013,07,12,17,36,21.60
2013,07,12,17,37,21.40
2013,07,12,17,38,21.30
2013,07,12,17,39,21.30
2013,07,12,17,40,21.20
2013,07,12,17,41,21.10
2013,07,12,17,42,21.00
2013,07,12,17,43,20.90
2013,07,12,17,44,20.80
2013,07,12,17,45,20.70
2013,07,12,17,46,20.60
2013,07,12,17,47,20.50
2013,07,12,17,48,20.50
2013,07,12,17,49,20.50
2013,07,12,17,50,20.40
2013,07,12,17,51,20.30
2013,07,12,17,52,20.20
2013,07,12,17,53,20.20
2013,07,12,17,54,20.20
2013,07,12,17,55,20.20
2013,07,12,17,56,20.20
2013,07,12,17,57,20.20
2013,07,12,17,58,20.20
2013,07,12,17,59,20.20
2013,07,12,18,00,20.10
2013,07,12,18,01,20.10
2013,07,12,18,02,20.10
2013,07,12,18,03,20.10
2013,07,12,18,04,20.20
2013,07,12,18,05,20.20
2013,07,12,18,06,20.20
2013,07,12,18,07,20.20
2013,07,12,18,08,20.10
2013,07,12,18,09,20.10
2013,07,12,18,10,20.10
2013,07,12,18,11,20.10
2013,07,12,18,12,19.90
2013,07,12,18,13,19.90
2013,07,12,18,14,19.90
2013,07,12,18,15,19.90
2013,07,12,18,16,19.90
2013,07,12,18,17,19.90
2013,07,12,18,18,19.90
2013,07,12,18,19,19.90
2013,07,12,18,20,19.90
2013,07,12,18,21,19.90
2013,07,12,18,22,19.90
2013,07,12,18,23,19.80
2013,07,12,18,24,19.80
2013,07,12,18,25,19.70
2013,07,12,18,26,19.70
2013,07,12,18,27,19.70
2013,07,12,18,28,19.80
2013,07,12,18,29,19.80
2013,07,12,18,30,19.80
2013,07,12,18,31,19.80
2013,07,12,18,32,19.60
2013,07,12,18,33,19.50
2013,07,12,18,34,19.30
2013,07,12,18,35,18.90
2013,07,12,18,36,18.80
2013,07,12,18,37,18.60
2013,07,12,18,38,18.40
2013,07,12,18,39,18.30
2013,07,12,18,40,18.20
2013,07,12,18,41,18.20
2013,07,12,18,42,18.20
2013,07,12,18,43,18.10